Location: Proctor
(35.0951°N, 90.3734°W)
Time: 05:11:12
(UTC+00:00)

Daily predictions for brighter satellites

Satellite Brightness Start Highest point End
(mag) Time Altitude Azimuth Time Altitude Azimuth Time Altitude Azimuth
PSLV R/B 4.2 00:00:20 10° SE 00:03:50 29° ENE 00:07:20 10° NNE
Okean 2 Rocket 3.8 00:02:25 10° SSE 00:06:14 29° E 00:08:00 22° NE
RESURS DK-1 3.6 00:03:30 10° N 00:05:59 21° NE 00:05:59 21° NE
BREEZE M DEB (TANK) 4.1 00:06:48 10° S 00:09:05 16° SE 00:09:18 16° SE
Geosat FO 3.8 00:09:19 10° SSE 00:12:13 80° ENE 00:15:07 10° NNW
ISS -1.9 00:09:31 10° W 00:12:21 25° NW 00:14:17 15° NNE
SJ 16-02 1.8 00:09:39 10° S 00:13:38 38° E 00:15:05 29° ENE
CZ-2D R/B 3.4 00:09:42 10° SSE 00:13:40 57° ENE 00:17:46 10° N
Spot 4 Rocket 4.1 00:10:58 10° SSE 00:15:54 53° ENE 00:20:51 10° N
Timation 2 Rocket 4.5 00:09:26 10° SSW 00:16:13 69° WNW 00:23:06 10° NNE
Helios 1A Rocket 2.4 00:17:58 12° N 00:21:02 80° WNW 00:24:24 10° SSW
USA 215 3.6 00:17:56 10° SE 00:24:25 68° SW 00:30:56 10° NW
ATLAS 5 CENTAUR R/B 1.9 00:19:58 10° NNW 00:24:48 82° ENE 00:30:46 10° SSE
Cosmos 1833 Rocket 3.6 00:23:37 10° NNW 00:29:03 50° WSW 00:34:28 10° S
Cosmos 371 Rocket 3.5 00:26:17 10° S 00:30:50 47° ESE 00:31:38 42° ENE
Aureole 3 Rocket 3.6 00:27:58 10° SSW 00:31:03 39° W 00:33:56 10° N
MOS 1 Rocket 3.8 00:27:10 10° S 00:31:19 55° W 00:35:35 10° NNW
Cosmos 1656 Rocket 4.2 00:29:16 10° SSE 00:33:51 34° ESE 00:33:51 34° ESE
Cosmos 2058 2.6 00:30:39 10° N 00:34:36 67° E 00:38:32 10° SSE
Cosmos 304 Rocket 3.6 00:35:02 10° S 00:39:41 62° ESE 00:40:27 53° ENE
NOAA 6 4.0 00:36:03 10° SSE 00:41:06 60° ENE 00:46:09 10° N
Cosmos 1763 Rocket 3.4 00:37:59 10° NNW 00:43:12 83° WSW 00:48:18 10° SSE
Cosmos 540 Rocket 3.3 00:40:49 10° NNW 00:45:58 87° ENE 00:51:03 10° SSE
Cosmos 1464 Rocket 4.1 00:41:40 10° S 00:47:59 76° W 00:54:16 10° N
Cosmos 2151 Rocket 3.9 00:43:50 10° SSW 00:48:15 64° W 00:52:22 12° N
OAO 3 Rocket 2.9 00:44:25 10° W 00:49:03 85° S 00:49:21 78° ESE
Cosmos 1400 Rocket 2.8 00:45:22 10° SSW 00:49:10 72° W 00:49:28 67° NW
Cosmos 2251 Rocket 4.2 00:45:29 10° SSW 00:50:35 53° WNW 00:55:23 12° N
SL-19 R/B 4.2 00:49:10 10° S 00:54:27 76° WSW 00:59:39 10° NNW
Sich 1 Rocket 3.5 00:50:40 10° S 00:55:10 87° W 00:55:44 68° N
Cosmos 2034 Rocket 3.8 00:53:06 10° S 00:59:15 87° E 01:05:30 10° N
Geosat 4.3 01:00:33 52° N 01:00:33 52° N 01:04:31 10° NNW
USA 281 4.2 01:07:16 30° NNE 01:07:16 30° NNE 01:10:58 10° N
Meteor 2-1 Rocket 4.2 00:59:43 10° S 01:05:33 83° E 01:07:23 47° NNE
Okean 1 Rocket 3.4 01:02:20 10° SSW 01:06:43 64° W 01:06:43 64° W
Cosmos 2082 Rocket 2.9 01:24:16 10° NNW 01:28:04 45° NNW 01:28:04 45° NNW
Cosmos 2344 4.5 01:39:43 10° NNW 01:45:44 44° NNE 01:45:44 44° NNE
SJ 16-02 4.1 01:49:20 10° W 01:51:41 15° WNW 01:51:41 15° WNW
SL-16 R/B 4.4 09:30:50 10° SSE 09:32:31 20° SSE 09:32:31 20° SSE
SL-16 R/B 4.4 09:36:42 10° SSE 09:40:59 22° E 09:45:17 10° NE
Cosmos 1802 Rocket 4.0 10:06:58 32° N 10:10:02 76° E 10:16:13 10° S
SJ 16-02 3.5 10:18:05 13° NNE 10:20:55 22° ENE 10:24:17 10° ESE
Cosmos 2237 Rocket 4.0 10:24:59 18° N 10:24:59 18° N 10:26:28 10° N
Cosmos 2056 Rocket 3.6 10:21:55 33° S 10:24:22 76° ESE 10:29:47 10° NNE
Cosmos 2278 Rocket 2.4 10:25:22 57° SSW 10:25:22 57° SSW 10:29:59 10° S
Cosmos 1943 Rocket 2.6 10:28:04 44° SSW 10:28:04 44° SSW 10:31:57 10° S
USA 229 DEB 3.8 10:23:41 14° SSW 10:28:30 59° ESE 10:34:37 10° NE
USA 229 3.8 10:23:47 13° SSW 10:28:43 58° ESE 10:34:49 10° NE
Cosmos 2016 Rocket 3.9 10:26:28 10° N 10:32:50 84° W 10:39:07 10° S
Cosmos 407 Rocket 3.6 10:33:47 55° SSW 10:33:47 55° SSW 10:37:57 10° S
Cosmos 1932 4.4 10:36:40 36° NNW 10:39:37 86° WSW 10:46:06 10° SSE
USA 267 3.6 10:33:58 10° NNE 10:40:03 44° NW 10:40:53 42° WNW
Cosmos 1782 Rocket 3.3 10:42:02 75° NNW 10:42:22 86° W 10:46:41 10° S
IRS-1D 4.0 10:38:52 10° NNE 10:43:44 58° ESE 10:48:34 10° S
Cosmos 1371 Rocket 3.9 10:41:01 28° SSW 10:43:52 73° WNW 10:49:12 10° NNE
Iridium 4 Rocket 3.0 10:47:39 57° SW 10:47:39 57° SW 10:51:07 10° S
ATLAS 3B R/B 2.9 10:41:54 10° SSW 10:49:14 88° ESE 10:57:05 10° NNE
Cosmos 1300 Rocket 3.7 10:51:06 51° SW 10:51:06 51° SW 10:54:36 10° S
FengYun 1-2 T 4.2 10:44:49 10° NNE 10:50:26 87° WNW 10:56:04 10° SSW
Cosmos 1869 4.2 10:47:38 13° NNE 10:50:29 41° E 10:53:48 10° SSE
Cosmos 371 Rocket 4.3 10:45:55 10° N 10:50:34 45° ENE 10:55:09 10° SE
Delta 142 4.5 10:53:05 30° SSW 10:53:55 33° S 10:57:36 10° ESE
Chandra Rocket (1) 3.5 10:54:13 29° SW 10:56:27 46° S 11:09:34 10° ESE
Cosmos 1812 4.3 10:54:19 10° NNE 10:56:46 24° E 10:59:13 10° SE
Cosmos 304 Rocket 4.4 10:53:31 10° N 10:58:12 56° ENE 11:02:51 10° SSE
CZ-4 R/B 4.0 10:54:15 10° NNE 10:59:03 75° ESE 11:03:44 10° S
Cosmos 1378 Rocket 4.1 10:59:55 10° S 11:04:05 58° E 11:08:17 10° NNE
Cosmos 2242 Rocket 3.4 11:03:38 10° SSW 11:07:59 73° W 11:12:24 10° N
ATLAS CENTAUR Rocket 4.3 11:08:12 10° SSW 11:11:08 18° SE 11:15:31 10° E
NOAA 12 4.1 11:06:26 10° NNE 11:11:47 90° ESE 11:17:05 10° SSW
Cosmos 1656 Rocket 3.9 11:06:36 10° NNW 11:12:18 73° ENE 11:17:55 10° SSE
USA 234 4.0 11:06:39 10° ESE 11:12:51 47° NE 11:19:03 10° NNW
In-Cosmos 22 Rocket 4.2 11:08:18 10° SSW 11:14:07 76° W 11:19:56 10° N
CZ-3 R/B 2.8 11:03:32 15° WSW 11:16:55 55° S 11:22:30 10° ESE
Cosmos 2251 Rocket 3.9 11:18:51 17° NW 11:22:41 42° WSW 11:27:41 10° S
SL-16 R/B 2.5 11:19:21 10° SW 11:24:43 42° WNW 11:30:06 10° N
Cosmos 2061 Rocket 4.2 11:20:07 10° NNW 11:25:59 47° W 11:31:51 10° SSW
H-2A R/B 3.2 11:31:29 13° SW 11:33:21 28° S 11:38:54 10° ESE
Cosmos 1452 Rocket 3.5 11:28:14 10° SSW 11:33:27 84° ESE 11:38:42 10° NNE
Aureole 3 Rocket 4.2 11:30:43 10° NNW 11:36:29 74° W 11:44:30 10° S
Cosmos 1331 Rocket 4.1 11:41:58 10° SSW 11:47:06 54° WNW 11:52:14 10° N
Cosmos 1464 Rocket 4.2 11:41:25 10° N 11:47:34 78° E 11:53:40 10° S
SKYMED 2 4.1 11:51:15 10° SSW 11:55:16 38° W 11:59:20 10° NNW
Hubble Space Telescope 3.5 11:54:19 10° S 11:55:32 11° SSE 11:56:44 10° SE
